| time (UTC) | temp C | wind direction | speed KPH | gust KPH | rain 1hr cm | rain 24hr cm | rain mn cm | humidity % | barometer mb |
| 20260506184557 | 27 | 107 | 0.0 | 4.8 | 0.00 | 0.00 | 0.00 | 80 | 1009.7 |
| 20260506183105 | 27 | 0 | 1.6 | 3.2 | 0.00 | 0.00 | 0.00 | 81 | 1009.9 |
| 20260506181558 | 27 | 105 | 0.0 | 9.7 | 0.00 | 0.00 | 0.00 | 80 | 1010.1 |
| 20260506180053 | 27 | 119 | 0.0 | 4.8 | 0.00 | 0.00 | 0.00 | 80 | 1010.3 |
| 20260506174552 | 27 | 0 | 1.6 | 3.2 | 0.00 | 0.00 | 0.00 | 80 | 1010.6 |
| 20260506173059 | 26 | 93 | 0.0 | 6.4 | 0.00 | 0.00 | 0.00 | 84 | 1011.0 |
| 20260506171554 | 26 | 85 | 1.6 | 6.4 | 0.00 | 0.00 | 0.00 | 83 | 1011.3 |
| 20260506170055 | 26 | 86 | 0.0 | 8.0 | 0.00 | 0.00 | 0.00 | 84 | 1011.4 |
| 20260506164608 | 26 | 0 | 0.0 | 1.6 | 0.00 | 0.00 | 0.00 | 83 | 1011.5 |
| 20260506163101 | 26 | 0 | 0.0 | 0.0 | 0.00 | 0.00 | 0.00 | 83 | 1011.5 |
| 20260506161554 | 26 | 145 | 0.0 | 6.4 | 0.00 | 0.00 | 0.00 | 84 | 1011.2 |
| 20260506160057 | 26 | 98 | 1.6 | 9.7 | 0.00 | 0.00 | 0.00 | 84 | 1011.0 |
| 20260506154600 | 26 | 133 | 0.0 | 8.0 | 0.00 | 0.00 | 0.00 | 85 | 1010.4 |
| 20260506153054 | 26 | 0 | 0.0 | 0.0 | 0.00 | 0.00 | 0.00 | 85 | 1010.3 |
| 20260506151554 | 25 | 0 | 0.0 | 1.6 | 0.00 | 0.00 | 0.00 | 86 | 1010.4 |
| 20260506144552 | 25 | 0 | 0.0 | 9.7 | 0.00 | 0.00 | 0.00 | 87 | 1010.1 |
| 20260506143048 | 25 | 0 | 0.0 | 3.2 | 0.00 | 0.00 | 0.00 | 88 | 1009.9 |
| 20260506141551 | 24 | 104 | 1.6 | 4.8 | 0.00 | 0.00 | 0.00 | 89 | 1009.5 |
| 20260506140051 | 24 | 0 | 1.6 | 8.0 | 0.00 | 0.00 | 0.00 | 89 | 1009.4 |
| 20260506134553 | 24 | 115 | 1.6 | 4.8 | 0.00 | 0.00 | 0.00 | 90 | 1009.4 |
| 20260506133106 | 23 | 116 | 0.0 | 6.4 | 0.00 | 0.00 | 0.00 | 91 | 1009.5 |
| 20260506131606 | 23 | 128 | 1.6 | 4.8 | 0.00 | 0.00 | 0.00 | 91 | 1009.7 |
| 20260506130051 | -17 | 0.0 | 0.0 | 0.00 | 0.00 | 0.00 | 1009.6 | ||
| 20260506124549 | -17 | 0.0 | 0.0 | 0.00 | 0.00 | 0.00 | 1009.6 | ||
| 20260506123050 | -17 | 0.0 | 0.0 | 0.00 | 0.00 | 0.00 | 1009.5 | ||
| 20260506121557 | -17 | 0.0 | 0.0 | 0.00 | 0.00 | 0.00 | 1009.4 | ||
| 20260506120107 | -17 | 0.0 | 0.0 | 0.00 | 0.00 | 0.00 | 1009.3 | ||
| 20260506114554 | -17 | 0.0 | 0.0 | 0.00 | 0.00 | 0.00 | 1009.2 | ||
| 20260506113054 | -17 | 0.0 | 0.0 | 0.00 | 0.00 | 0.00 | 1009.1 | ||
| 20260506111553 | -17 | 0.0 | 0.0 | 0.00 | 0.00 | 0.00 | 1009.1 | ||
| 20260506110105 | -17 | 0.0 | 0.0 | 0.00 | 0.00 | 0.00 | 1009.0 | ||
| 20260506104603 | -17 | 0.0 | 0.0 | 0.00 | 0.00 | 0.00 | 1008.8 | ||
| 20260506103053 | -17 | 0.0 | 0.0 | 0.00 | 0.00 | 0.00 | 1008.4 | ||
| 20260506101553 | -17 | 0.0 | 0.0 | 0.00 | 0.00 | 0.00 | 1008.1 | ||
| 20260506094550 | -17 | 0.0 | 0.0 | 0.00 | 0.00 | 0.00 | 1008.2 | ||
| 20260506093053 | -17 | 0.0 | 0.0 | 0.00 | 0.00 | 0.00 | 1008.2 | ||
| 20260506091553 | -17 | 0.0 | 0.0 | 0.00 | 0.00 | 0.00 | 1008.2 | ||
| 20260506090059 | -17 | 0.0 | 0.0 | 0.00 | 0.00 | 0.00 | 1007.9 | ||
| 20260506084619 | -17 | 0.0 | 0.0 | 0.00 | 0.00 | 0.00 | 1008.1 | ||
| 20260506083054 | -17 | 0.0 | 0.0 | 0.00 | 0.00 | 0.00 | 1008.2 | ||
| 20260506081557 | -17 | 0.0 | 0.0 | 0.00 | 0.00 | 0.00 | 1008.2 | ||
| 20260506073052 | -17 | 0.0 | 0.0 | 0.00 | 0.00 | 0.00 | 1008.7 | ||
| 20260506071551 | -17 | 0.0 | 0.0 | 0.00 | 0.00 | 0.00 | 1009.1 | ||
| 20260506061555 | -17 | 0.0 | 0.0 | 0.00 | 0.00 | 0.00 | 1009.3 | ||
| 20260506044555 | -17 | 0.0 | 0.0 | 0.00 | 0.00 | 0.00 | 1009.2 | ||
| 20260506043053 | 24 | 188 | 1.6 | 16.1 | 0.00 | 0.00 | 0.00 | 87 | 1009.1 |
| 20260506041604 | 24 | 175 | 3.2 | 9.7 | 0.00 | 0.00 | 0.00 | 87 | 1008.9 |
| 20260506040054 | 24 | 171 | 6.4 | 22.5 | 0.00 | 0.00 | 0.00 | 86 | 1008.8 |
| 20260506034556 | 25 | 0 | 3.2 | 11.3 | 0.00 | 0.00 | 0.00 | 86 | 1009.0 |
| 20260506033052 | 25 | 174 | 4.8 | 16.1 | 0.00 | 0.00 | 0.00 | 86 | 1008.9 |
| 20260506031555 | 25 | 175 | 3.2 | 12.9 | 0.00 | 0.00 | 0.00 | 86 | 1008.8 |
| 20260506030055 | 25 | 149 | 1.6 | 17.7 | 0.00 | 0.00 | 0.00 | 85 | 1008.6 |
| 20260506024556 | 25 | 164 | 6.4 | 22.5 | 0.00 | 0.00 | 0.00 | 85 | 1008.4 |
| 20260506023106 | 25 | 152 | 3.2 | 19.3 | 0.00 | 0.00 | 0.00 | 85 | 1008.2 |
| 20260506021610 | 25 | 179 | 4.8 | 17.7 | 0.00 | 0.00 | 0.00 | 85 | 1007.9 |
| 20260506020050 | 25 | 180 | 8.0 | 17.7 | 0.00 | 0.00 | 0.00 | 85 | 1007.8 |
| 20260506014556 | 25 | 88 | 4.8 | 22.5 | 0.00 | 0.00 | 0.00 | 84 | 1007.4 |
| 20260506013107 | 25 | 161 | 1.6 | 9.7 | 0.00 | 0.00 | 0.00 | 84 | 1007.2 |
| 20260506011614 | 25 | 173 | 3.2 | 16.1 | 0.00 | 0.00 | 0.00 | 83 | 1007.0 |
| 20260506010059 | 25 | 184 | 4.8 | 14.5 | 0.00 | 0.00 | 0.00 | 83 | 1006.9 |
| 20260506004550 | 25 | 78 | 3.2 | 19.3 | 0.00 | 0.00 | 0.00 | 82 | 1006.7 |
| 20260506003055 | 26 | 150 | 4.8 | 19.3 | 0.00 | 0.00 | 0.00 | 81 | 1006.7 |
| 20260506001555 | 26 | 171 | 3.2 | 20.9 | 0.00 | 0.00 | 0.00 | 80 | 1006.7 |
| 20260506000057 | 26 | 183 | 8.0 | 24.1 | 0.00 | 0.00 | 0.00 | 80 | 1006.6 |
| 20260505234555 | 26 | 194 | 4.8 | 22.5 | 0.00 | 0.00 | 0.00 | 80 | 1006.3 |
| 20260505233050 | 26 | 184 | 4.8 | 16.1 | 0.00 | 0.00 | 0.00 | 79 | 1006.4 |
| 20260505231606 | 27 | 184 | 8.0 | 22.5 | 0.00 | 0.00 | 0.00 | 79 | 1006.3 |
| 20260505230053 | 27 | 171 | 8.0 | 25.7 | 0.00 | 0.00 | 0.00 | 78 | 1006.1 |
| 20260505224602 | 27 | 153 | 8.0 | 29.0 | 0.00 | 0.00 | 0.00 | 78 | 1006.2 |
| 20260505223054 | 27 | 217 | 11.3 | 30.6 | 0.00 | 0.00 | 0.00 | 77 | 1006.4 |
| 20260505221600 | 27 | 172 | 9.7 | 24.1 | 0.00 | 0.00 | 0.00 | 77 | 1006.4 |
| 20260505220057 | 28 | 160 | 6.4 | 24.1 | 0.00 | 0.00 | 0.00 | 75 | 1006.5 |
| 20260505214556 | 28 | 180 | 9.7 | 32.2 | 0.00 | 0.00 | 0.00 | 74 | 1006.5 |
| 20260505213048 | 28 | 225 | 11.3 | 27.4 | 0.00 | 0.00 | 0.00 | 75 | 1006.8 |
| 20260505211549 | 28 | 184 | 11.3 | 27.4 | 0.00 | 0.00 | 0.00 | 75 | 1007.1 |
| 20260505210051 | 28 | 163 | 14.5 | 27.4 | 0.00 | 0.00 | 0.00 | 74 | 1007.3 |
| 20260505204550 | 28 | 104 | 11.3 | 32.2 | 0.00 | 0.00 | 0.00 | 77 | 1007.5 |
| 20260505203107 | 28 | 162 | 11.3 | 25.7 | 0.00 | 0.00 | 0.00 | 75 | 1007.5 |
| 20260505201600 | 28 | 182 | 8.0 | 27.4 | 0.00 | 0.00 | 0.00 | 75 | 1007.8 |
| 20260505200055 | 28 | 171 | 9.7 | 24.1 | 0.00 | 0.00 | 0.00 | 76 | 1008.0 |
| 20260505194552 | 28 | 194 | 6.4 | 30.6 | 0.00 | 0.00 | 0.00 | 76 | 1008.1 |
| 20260505193052 | 28 | 183 | 11.3 | 35.4 | 0.00 | 0.00 | 0.00 | 77 | 1008.3 |
| 20260505191608 | 27 | 146 | 9.7 | 22.5 | 0.00 | 0.00 | 0.00 | 77 | 1008.6 |
| 20260505190054 | 27 | 177 | 4.8 | 19.3 | 0.00 | 0.00 | 0.00 | 78 | 1008.8 |